Regional Weather Roundup
Issued by NWS Green Bay, WI

Home | Current Version | Previous Version | Text Only | Print | Product List | Glossary On
Versions: 1 2 3 4 5 6 7 8 9 10 11 12 13 14 15 16 17 18 19 20 21 22 23 24 25 26 27 28 29 30 31 32 33 34 35 36 37 38 39 40 41 42 43 44 45 46 47 48 49 50
000
ASUS43 KGRB 222111
RWRGRB

NORTH-CENTRAL AND NORTHEAST WISCONSIN REGIONAL WEATHER ROUNDUP
NATIONAL WEATHER SERVICE GREEN BAY WI
300 PM CST SUN JAN 22 2017

WIZ005-009-010>012-018-019-222200-
NORTH CENTRAL WISCONSIN

CITY           SKY/WX    TMP DP  RH WIND       PRES   REMARKS
IRONWOOD       CLOUDY    36  34  93 NW6       29.67R FOG
MANITOWISH WTR CLOUDY    34  34 100 NW3       29.63S
ARBOR VITAE    CLOUDY    37  36  98 N5        29.63R FOG
EAGLE RIVER    MIX PCPN  36  36 100 NW6       29.62R
LAND O LAKES   CLOUDY    37  37 100 CALM      29.64R FOG
RHINELANDER    CLOUDY    38  38 100 NW5       29.62S
PHILLIPS       CLOUDY    34  34 100 CALM      29.64R FOG
ANTIGO         CLOUDY    36  36 100 W5        29.62S
TOMAHAWK       CLOUDY    36  35  98 NW5       29.64R
MERRILL        CLOUDY    38  38 100 CALM        N/A
$$

WIZ013-073-222200-
NORTHEAST WISCONSIN

CITY           SKY/WX    TMP DP  RH WIND       PRES   REMARKS
IRON MOUNTAIN  CLOUDY    37  34  89 N3        29.61R
MARINETTE      NOT AVBL
OCONTO         CLOUDY    38  37  99 CALM      29.64R
$$

WIZ017-030-035>037-045-222200-
CENTRAL WISCONSIN

CITY           SKY/WX    TMP DP  RH WIND       PRES   REMARKS
MEDFORD        CLOUDY    35  35 100 NW5       29.64R FOG
WAUSAU         CLOUDY    37  35  92 NW6       29.62S
MOSINEE        CLOUDY    36  36 100 NW6       29.64R
MARSHFIELD     CLOUDY    36  33  89 NW8       29.64R FOG
WISC RAPIDS    CLOUDY    38  36  92 NW7       29.66R
STEVENS POINT  CLOUDY    35  35 100 CALM      29.65S
WAUPACA        CLOUDY    39  39  97 CALM      29.64S
SHAWANO        CLOUDY    41  40  96 W3        29.64R
CLINTONVILLE   CLOUDY    37  37 100 CALM      29.63S
WAUTOMA        CLOUDY    38  37  97 W7        29.66R
$$

WIZ038-039-048-051-222200-
FOX VALLEY

CITY           SKY/WX    TMP DP  RH WIND       PRES   REMARKS
NWS GREEN BAY  CLOUDY    40  39  97 CALM      29.64R FOG
APPLETON       CLOUDY    37  37 100 W5        29.62R FOG
OSHKOSH        CLOUDY    40  37  89 CALM      29.64R
FOND DU LAC    LGT RAIN  40  35  83 W6        29.65R
$$

WIZ022-050-052-222200-
EAST CENTRAL WISCONSIN

CITY           SKY/WX    TMP DP  RH WIND       PRES   REMARKS
EPHRAIM        FOG       37  37 100 CALM      29.63R VSB 1/4
WASHINGTON ISL FOG       36  36 100 CALM      29.63R VSB 1/4
STURGEON BAY   FOG       38  38 100 W3        29.64R VSB 1/2
MANITOWOC      FOG       37  36  96 W7        29.66R VSB 3/4
SHEBOYGAN      PTSUNNY   44  38  79 NW7       29.64R
$$

LMZ563-521-522-541>543-222200-
LAKESHORE

STATION/POSITION TIME  TEMP    WIND        PRES    VSBY  WAVE
                       AIR SEA DIR/SP/G                  HT/PER
                 (UTC) (F)     (DEG/KT/KT) (MB)    (MI)  (FT/S)
SHEBOYGAN LKSHOR 2100   35     140/  3/  3 1004.2R
KEWAUNEE LKSHORE 2048   39     300/  3/  6 1003.5R
NORTHPORT PIER   2040   35     330/  3/  4 1003.7R
SISTER BAY LKSHO 2035   37        CALM       N/A
MENOMINEE LKSHOR 2048           CALM  /  2 1003.0R
$$




USA.gov is the U.S. government's official web portal to all federal, state and local government web resources and services.